Time,TemperatureF,DewpointF,PressureIn,WindDirection,WindDirectionDegrees,WindSpeedMPH,WindSpeedGustMPH,Humidity,HourlyPrecipIn,Conditions,Clouds,dailyrainin,SoftwareType,DateUTC
2013-12-08 00:00:00,24.0,13.6,30.60,WNW,297,0.0,1.0,64,0.00,,---,0.00,VWS V14.01,2013-12-08 05:00:00,
2013-12-08 00:01:00,24.0,13.6,30.60,WNW,297,0.0,1.0,64,0.00,,---,0.00,VWS V14.01,2013-12-08 05:01:00,
2013-12-08 00:02:00,24.0,14.0,30.60,WNW,299,0.0,1.0,65,0.00,,---,0.00,VWS V14.01,2013-12-08 05:02:00,
2013-12-08 00:07:00,23.7,13.7,30.60,NW,314,0.0,1.0,65,0.00,,---,0.00,VWS V14.01,2013-12-08 05:07:00,
2013-12-08 00:12:00,23.2,13.5,30.60,NW,306,0.0,1.0,66,0.00,,---,0.00,VWS V14.01,2013-12-08 05:12:00,
2013-12-08 00:17:00,22.5,13.6,30.59,NW,305,0.0,1.0,68,0.00,,---,0.00,VWS V14.01,2013-12-08 05:17:00,
2013-12-08 00:22:00,22.1,13.2,30.59,WNW,302,1.0,2.0,68,0.00,,---,0.00,VWS V14.01,2013-12-08 05:22:00,
2013-12-08 00:27:00,22.2,13.3,30.59,West,269,0.0,2.0,68,0.00,,---,0.00,VWS V14.01,2013-12-08 05:27:00,
2013-12-08 00:30:00,22.3,13.4,30.59,West,281,0.0,3.0,68,0.00,,---,0.00,VWS V14.01,2013-12-08 05:30:00,
2013-12-08 00:32:00,22.5,13.6,30.59,NNW,333,1.0,2.0,68,0.00,,---,0.00,VWS V14.01,2013-12-08 05:32:00,
2013-12-08 00:37:00,22.5,13.6,30.59,West,267,0.0,3.0,68,0.00,,---,0.00,VWS V14.01,2013-12-08 05:37:00,
2013-12-08 00:42:00,22.1,13.5,30.59,West,267,0.0,3.0,69,0.00,,---,0.00,VWS V14.01,2013-12-08 05:42:00,
2013-12-08 00:47:00,21.6,13.3,30.59,West,267,0.0,3.0,70,0.00,,---,0.00,VWS V14.01,2013-12-08 05:47:00,
2013-12-08 00:52:00,21.1,13.2,30.59,West,267,0.0,3.0,71,0.00,,---,0.00,VWS V14.01,2013-12-08 05:52:00,
2013-12-08 00:57:00,20.7,13.1,30.59,West,267,0.0,3.0,72,0.00,,---,0.00,VWS V14.01,2013-12-08 05:57:00,
2013-12-08 01:00:00,20.5,12.9,30.59,West,267,0.0,3.0,72,0.00,,---,0.00,VWS V14.01,2013-12-08 06:00:00,
2013-12-08 01:02:00,20.4,13.1,30.59,West,271,0.0,0.0,73,0.00,,---,0.00,VWS V14.01,2013-12-08 06:02:00,
2013-12-08 01:07:00,20.2,12.9,30.60,SSW,212,0.0,1.0,73,0.00,,---,0.00,VWS V14.01,2013-12-08 06:07:00,
2013-12-08 01:12:00,19.9,13.0,30.60,SSW,212,0.0,1.0,74,0.00,,---,0.00,VWS V14.01,2013-12-08 06:12:00,
2013-12-08 01:17:00,19.8,13.2,30.60,SSW,212,0.0,1.0,75,0.00,,---,0.00,VWS V14.01,2013-12-08 06:17:00,
2013-12-08 01:22:00,20.0,13.4,30.60,NW,312,0.0,1.0,75,0.00,,---,0.00,VWS V14.01,2013-12-08 06:22:00,
2013-12-08 01:27:00,20.0,13.4,30.61,North,4,0.0,1.0,75,0.00,,---,0.00,VWS V14.01,2013-12-08 06:27:00,
2013-12-08 01:30:00,19.9,13.3,30.61,North,4,0.0,1.0,75,0.00,,---,0.00,VWS V14.01,2013-12-08 06:30:00,
2013-12-08 01:32:00,19.8,13.2,30.61,North,4,0.0,0.0,75,0.00,,---,0.00,VWS V14.01,2013-12-08 06:32:00,
2013-12-08 01:37:00,19.6,13.0,30.61,North,4,0.0,0.0,75,0.00,,---,0.00,VWS V14.01,2013-12-08 06:37:00,
2013-12-08 01:42:00,19.4,13.1,30.61,North,3,0.0,0.0,76,0.00,,---,0.00,VWS V14.01,2013-12-08 06:42:00,
2013-12-08 01:47:00,19.1,13.1,30.61,North,3,0.0,0.0,77,0.00,,---,0.00,VWS V14.01,2013-12-08 06:47:00,
2013-12-08 01:52:00,18.8,12.8,30.60,North,3,0.0,0.0,77,0.00,,---,0.00,VWS V14.01,2013-12-08 06:52:00,
2013-12-08 01:57:00,18.7,13.0,30.60,North,358,0.0,1.0,78,0.00,,---,0.00,VWS V14.01,2013-12-08 06:57:00,
2013-12-08 02:00:00,18.7,13.0,30.60,West,263,0.0,1.0,78,0.00,,---,0.00,VWS V14.01,2013-12-08 07:00:00,
2013-12-08 02:02:00,18.6,12.9,30.60,West,263,0.0,0.0,78,0.00,,---,0.00,VWS V14.01,2013-12-08 07:02:00,
2013-12-08 02:07:00,18.5,12.8,30.60,WSW,245,0.0,0.0,78,0.00,,---,0.00,VWS V14.01,2013-12-08 07:07:00,
2013-12-08 02:12:00,18.4,12.7,30.60,WNW,302,1.0,1.0,78,0.00,,---,0.00,VWS V14.01,2013-12-08 07:12:00,
2013-12-08 02:17:00,18.0,12.3,30.61,WNW,295,0.0,1.0,78,0.00,,---,0.00,VWS V14.01,2013-12-08 07:17:00,
2013-12-08 02:22:00,17.6,12.5,30.61,WNW,295,0.0,1.0,80,0.00,,---,0.00,VWS V14.01,2013-12-08 07:22:00,
2013-12-08 02:27:00,17.8,12.7,30.61,WNW,294,0.0,1.0,80,0.00,,---,0.00,VWS V14.01,2013-12-08 07:27:00,
2013-12-08 02:30:00,18.0,12.9,30.61,WNW,302,0.0,1.0,80,0.00,,---,0.00,VWS V14.01,2013-12-08 07:30:00,
2013-12-08 02:32:00,18.1,13.0,30.61,NW,307,0.0,1.0,80,0.00,,---,0.00,VWS V14.01,2013-12-08 07:32:00,
2013-12-08 02:37:00,18.1,12.7,30.61,NW,311,0.0,1.0,79,0.00,,---,0.00,VWS V14.01,2013-12-08 07:37:00,
2013-12-08 02:42:00,18.3,13.2,30.61,NW,309,0.0,1.0,80,0.00,,---,0.00,VWS V14.01,2013-12-08 07:42:00,
2013-12-08 02:47:00,18.7,13.3,30.61,WNW,286,0.0,1.0,79,0.00,,---,0.00,VWS V14.01,2013-12-08 07:47:00,
2013-12-08 02:52:00,18.8,13.4,30.61,NW,314,0.0,1.0,79,0.00,,---,0.00,VWS V14.01,2013-12-08 07:52:00,
2013-12-08 02:57:00,19.1,13.4,30.61,NW,309,0.0,2.0,78,0.00,,---,0.00,VWS V14.01,2013-12-08 07:57:00,
2013-12-08 03:00:00,19.2,13.5,30.61,SSE,157,0.0,2.0,78,0.00,,---,0.00,VWS V14.01,2013-12-08 08:00:00,
2013-12-08 03:02:00,19.2,13.2,30.61,WSW,258,0.0,1.0,77,0.00,,---,0.00,VWS V14.01,2013-12-08 08:02:00,
2013-12-08 03:07:00,19.2,13.2,30.61,West,264,0.0,1.0,77,0.00,,---,0.00,VWS V14.01,2013-12-08 08:07:00,
2013-12-08 03:12:00,19.3,13.6,30.61,WSW,255,0.0,1.0,78,0.00,,---,0.00,VWS V14.01,2013-12-08 08:12:00,
2013-12-08 03:17:00,19.2,13.2,30.61,SSW,209,0.0,1.0,77,0.00,,---,0.00,VWS V14.01,2013-12-08 08:17:00,
2013-12-08 03:22:00,19.2,13.5,30.61,SSW,209,0.0,1.0,78,0.00,,---,0.00,VWS V14.01,2013-12-08 08:22:00,
2013-12-08 03:27:00,19.2,13.5,30.61,SW,219,0.0,1.0,78,0.00,,---,0.00,VWS V14.01,2013-12-08 08:27:00,
2013-12-08 03:30:00,19.3,13.6,30.61,SSW,195,0.0,1.0,78,0.00,,---,0.00,VWS V14.01,2013-12-08 08:30:00,
2013-12-08 03:32:00,19.4,13.7,30.61,SSW,198,0.0,1.0,78,0.00,,---,0.00,VWS V14.01,2013-12-08 08:32:00,
2013-12-08 03:37:00,19.6,13.6,30.60,SW,217,1.0,1.0,77,0.00,,---,0.00,VWS V14.01,2013-12-08 08:37:00,
2013-12-08 03:42:00,19.5,13.2,30.60,SSW,210,0.0,1.0,76,0.00,,---,0.00,VWS V14.01,2013-12-08 08:42:00,
2013-12-08 03:47:00,19.3,13.3,30.60,WNW,291,0.0,1.0,77,0.00,,---,0.00,VWS V14.01,2013-12-08 08:47:00,
2013-12-08 03:52:00,18.8,12.8,30.60,NW,312,0.0,1.0,77,0.00,,---,0.00,VWS V14.01,2013-12-08 08:52:00,
2013-12-08 03:57:00,18.3,12.9,30.61,NW,312,0.0,1.0,79,0.00,,---,0.00,VWS V14.01,2013-12-08 08:57:00,
2013-12-08 04:00:00,18.1,13.0,30.61,NW,312,0.0,1.0,80,0.00,,---,0.00,VWS V14.01,2013-12-08 09:00:00,
2013-12-08 04:02:00,18.0,12.9,30.61,NW,312,0.0,0.0,80,0.00,,---,0.00,VWS V14.01,2013-12-08 09:02:00,
2013-12-08 04:07:00,17.7,13.1,30.60,NW,312,0.0,0.0,82,0.00,,---,0.00,VWS V14.01,2013-12-08 09:07:00,
2013-12-08 04:12:00,17.3,12.5,30.60,NW,312,0.0,0.0,81,0.00,,---,0.00,VWS V14.01,2013-12-08 09:12:00,
2013-12-08 04:17:00,16.9,12.6,30.60,NW,312,0.0,0.0,83,0.00,,---,0.00,VWS V14.01,2013-12-08 09:17:00,
2013-12-08 04:22:00,16.8,13.1,30.60,NW,312,0.0,0.0,85,0.00,,---,0.00,VWS V14.01,2013-12-08 09:22:00,
2013-12-08 04:27:00,17.1,13.4,30.61,NW,312,0.0,0.0,85,0.00,,---,0.00,VWS V14.01,2013-12-08 09:27:00,
2013-12-08 04:30:00,17.3,13.3,30.60,NW,312,0.0,0.0,84,0.00,,---,0.00,VWS V14.01,2013-12-08 09:30:00,
2013-12-08 04:32:00,17.3,13.3,30.60,NW,312,0.0,0.0,84,0.00,,---,0.00,VWS V14.01,2013-12-08 09:32:00,
2013-12-08 04:37:00,17.3,13.3,30.61,NW,312,0.0,0.0,84,0.00,,---,0.00,VWS V14.01,2013-12-08 09:37:00,
2013-12-08 04:42:00,17.3,13.3,30.60,NW,312,0.0,0.0,84,0.00,,---,0.00,VWS V14.01,2013-12-08 09:42:00,
2013-12-08 04:47:00,17.3,13.3,30.61,WNW,284,0.0,0.0,84,0.00,,---,0.00,VWS V14.01,2013-12-08 09:47:00,
2013-12-08 04:52:00,17.5,13.5,30.61,WNW,284,0.0,0.0,84,0.00,,---,0.00,VWS V14.01,2013-12-08 09:52:00,
2013-12-08 04:57:00,17.7,13.7,30.61,WNW,284,0.0,0.0,84,0.00,,---,0.00,VWS V14.01,2013-12-08 09:57:00,
2013-12-08 05:00:00,17.7,13.7,30.60,WNW,284,0.0,0.0,84,0.00,,---,0.00,VWS V14.01,2013-12-08 10:00:00,
2013-12-08 05:02:00,17.6,13.6,30.60,NW,319,1.0,1.0,84,0.00,,---,0.00,VWS V14.01,2013-12-08 10:02:00,
2013-12-08 05:07:00,17.3,13.6,30.59,NW,319,0.0,1.0,85,0.00,,---,0.00,VWS V14.01,2013-12-08 10:07:00,
2013-12-08 05:12:00,17.0,13.5,30.59,NW,318,0.0,1.0,86,0.00,,---,0.00,VWS V14.01,2013-12-08 10:12:00,
2013-12-08 05:16:00,16.8,13.4,30.60,NNW,328,0.0,1.0,86,0.00,,---,0.00,VWS V14.01,2013-12-08 10:16:00,
2013-12-08 05:21:00,16.7,13.2,30.61,West,271,0.0,1.0,86,0.00,,---,0.00,VWS V14.01,2013-12-08 10:21:00,
2013-12-08 05:26:00,16.7,13.5,30.61,West,267,0.0,1.0,87,0.00,,---,0.00,VWS V14.01,2013-12-08 10:26:00,
2013-12-08 05:30:00,16.7,13.5,30.61,West,267,0.0,1.0,87,0.00,,---,0.00,VWS V14.01,2013-12-08 10:30:00,
2013-12-08 05:31:00,16.7,13.5,30.61,West,267,0.0,0.0,87,0.00,,---,0.00,VWS V14.01,2013-12-08 10:31:00,
2013-12-08 05:36:00,16.8,13.6,30.61,West,267,0.0,0.0,87,0.00,,---,0.00,VWS V14.01,2013-12-08 10:36:00,
2013-12-08 05:41:00,17.0,13.5,30.61,West,267,0.0,0.0,86,0.00,,---,0.00,VWS V14.01,2013-12-08 10:41:00,
2013-12-08 05:46:00,17.3,14.1,30.61,West,269,0.0,0.0,87,0.00,,---,0.00,VWS V14.01,2013-12-08 10:46:00,
2013-12-08 05:51:00,17.8,14.6,30.61,NE,39,0.0,1.0,87,0.00,,---,0.00,VWS V14.01,2013-12-08 10:51:00,
2013-12-08 05:56:00,17.9,14.4,30.61,NE,39,0.0,1.0,86,0.00,,---,0.00,VWS V14.01,2013-12-08 10:56:00,
2013-12-08 06:00:00,17.9,14.4,30.61,NE,39,0.0,1.0,86,0.00,,---,0.00,VWS V14.01,2013-12-08 11:00:00,
2013-12-08 06:01:00,17.9,14.4,30.61,NE,38,1.0,1.0,86,0.00,,---,0.00,VWS V14.01,2013-12-08 11:01:00,
2013-12-08 06:06:00,17.9,14.7,30.60,NE,38,0.0,1.0,87,0.00,,---,0.00,VWS V14.01,2013-12-08 11:06:00,
2013-12-08 06:11:00,17.9,14.7,30.60,NE,38,0.0,1.0,87,0.00,,---,0.00,VWS V14.01,2013-12-08 11:11:00,
2013-12-08 06:16:00,17.9,14.9,30.60,NE,38,0.0,1.0,88,0.00,,---,0.00,VWS V14.01,2013-12-08 11:16:00,
2013-12-08 06:21:00,17.9,15.2,30.60,East,79,0.0,2.0,89,0.00,,---,0.00,VWS V14.01,2013-12-08 11:21:00,
2013-12-08 06:26:00,18.1,15.4,30.61,East,85,0.0,2.0,89,0.00,,---,0.00,VWS V14.01,2013-12-08 11:26:00,
2013-12-08 06:30:00,18.2,15.5,30.61,NNE,25,0.0,2.0,89,0.00,,---,0.00,VWS V14.01,2013-12-08 11:30:00,
2013-12-08 06:31:00,18.2,15.5,30.61,East,98,0.0,1.0,89,0.00,,---,0.00,VWS V14.01,2013-12-08 11:31:00,
2013-12-08 06:36:00,18.3,15.6,30.61,East,98,0.0,1.0,89,0.00,,---,0.00,VWS V14.01,2013-12-08 11:36:00,
2013-12-08 06:41:00,18.4,15.7,30.62,East,98,0.0,1.0,89,0.00,,---,0.00,VWS V14.01,2013-12-08 11:41:00,
2013-12-08 06:46:00,18.5,15.8,30.61,East,97,0.0,1.0,89,0.00,,---,0.00,VWS V14.01,2013-12-08 11:46:00,
2013-12-08 06:51:00,18.6,15.9,30.61,East,98,0.0,1.0,89,0.00,,---,0.00,VWS V14.01,2013-12-08 11:51:00,
2013-12-08 06:56:00,18.6,15.9,30.62,East,98,0.0,1.0,89,0.00,,---,0.00,VWS V14.01,2013-12-08 11:56:00,
2013-12-08 07:00:00,18.7,15.7,30.62,East,98,0.0,1.0,88,0.00,,---,0.00,VWS V14.01,2013-12-08 12:00:00,
2013-12-08 07:01:00,18.7,15.7,30.62,East,98,0.0,0.0,88,0.00,,---,0.00,VWS V14.01,2013-12-08 12:01:00,
2013-12-08 07:06:00,18.8,16.1,30.62,East,98,0.0,0.0,89,0.00,,---,0.00,VWS V14.01,2013-12-08 12:06:00,
2013-12-08 07:12:00,18.9,15.9,30.63,East,98,0.0,0.0,88,0.00,,---,0.00,VWS V14.01,2013-12-08 12:12:00,
2013-12-08 07:16:00,19.0,16.0,30.62,East,98,0.0,0.0,88,0.00,,---,0.00,VWS V14.01,2013-12-08 12:16:00,
2013-12-08 07:21:00,19.0,16.0,30.62,East,98,0.0,0.0,88,0.00,,---,0.00,VWS V14.01,2013-12-08 12:21:00,
2013-12-08 07:26:00,19.2,16.2,30.62,East,98,0.0,0.0,88,0.00,,---,0.00,VWS V14.01,2013-12-08 12:26:00,
2013-12-08 07:30:00,19.3,16.3,30.62,ENE,67,0.0,1.0,88,0.00,,---,0.00,VWS V14.01,2013-12-08 12:30:00,
2013-12-08 07:31:00,19.3,16.3,30.62,ENE,67,0.0,0.0,88,0.00,,---,0.00,VWS V14.01,2013-12-08 12:31:00,
2013-12-08 07:36:00,19.3,16.3,30.62,ENE,67,0.0,0.0,88,0.00,,---,0.00,VWS V14.01,2013-12-08 12:36:00,
2013-12-08 07:41:00,19.4,16.4,30.62,ENE,67,0.0,1.0,88,0.00,,---,0.00,VWS V14.01,2013-12-08 12:41:00,
2013-12-08 07:46:00,19.5,16.5,30.61,ENE,67,0.0,1.0,88,0.00,,---,0.00,VWS V14.01,2013-12-08 12:46:00,
2013-12-08 07:51:00,19.6,16.6,30.62,ENE,67,0.0,1.0,88,0.00,,---,0.00,VWS V14.01,2013-12-08 12:51:00,
2013-12-08 07:56:00,19.7,16.7,30.62,ENE,67,0.0,1.0,88,0.00,,---,0.00,VWS V14.01,2013-12-08 12:56:00,
2013-12-08 08:00:00,19.8,16.8,30.62,North,11,1.0,1.0,88,0.00,,---,0.00,VWS V14.01,2013-12-08 13:00:00,
2013-12-08 08:01:00,19.8,16.6,30.62,NNE,12,0.0,1.0,87,0.00,,---,0.00,VWS V14.01,2013-12-08 13:01:00,
2013-12-08 08:06:00,19.9,16.7,30.63,NNE,13,0.0,1.0,87,0.00,,---,0.00,VWS V14.01,2013-12-08 13:06:00,
2013-12-08 08:11:00,20.0,16.8,30.63,NNE,12,0.0,1.0,87,0.00,,---,0.00,VWS V14.01,2013-12-08 13:11:00,
2013-12-08 08:16:00,20.1,16.9,30.63,NNE,12,0.0,1.0,87,0.00,,---,0.00,VWS V14.01,2013-12-08 13:16:00,
2013-12-08 08:21:00,20.2,17.0,30.62,NNE,12,0.0,1.0,87,0.00,,---,0.00,VWS V14.01,2013-12-08 13:21:00,
2013-12-08 08:26:00,20.3,17.1,30.62,NNE,13,0.0,1.0,87,0.00,,---,0.00,VWS V14.01,2013-12-08 13:26:00,
2013-12-08 08:30:00,20.4,17.2,30.62,NNE,13,0.0,1.0,87,0.00,,---,0.00,VWS V14.01,2013-12-08 13:30:00,
2013-12-08 08:31:00,20.4,17.2,30.62,NNE,13,0.0,0.0,87,0.00,,---,0.00,VWS V14.01,2013-12-08 13:31:00,
2013-12-08 08:36:00,20.5,17.2,30.62,NNE,13,0.0,0.0,87,0.00,,---,0.00,VWS V14.01,2013-12-08 13:36:00,
2013-12-08 08:41:00,20.7,17.5,30.62,NNE,13,0.0,0.0,87,0.00,,---,0.00,VWS V14.01,2013-12-08 13:41:00,
2013-12-08 08:46:00,20.8,17.5,30.62,NNE,13,0.0,0.0,87,0.00,,---,0.00,VWS V14.01,2013-12-08 13:46:00,
2013-12-08 08:51:00,21.0,17.5,30.62,NE,43,0.0,1.0,86,0.00,,---,0.00,VWS V14.01,2013-12-08 13:51:00,
2013-12-08 08:56:00,21.1,17.6,30.62,NE,41,0.0,1.0,86,0.00,,---,0.00,VWS V14.01,2013-12-08 13:56:00,
2013-12-08 09:00:00,21.2,17.7,30.62,NE,51,0.0,1.0,86,0.00,,---,0.00,VWS V14.01,2013-12-08 14:00:00,
2013-12-08 09:01:00,21.3,17.8,30.62,NE,51,0.0,0.0,86,0.00,,---,0.00,VWS V14.01,2013-12-08 14:01:00,
2013-12-08 09:06:00,21.4,17.6,30.63,NE,51,0.0,0.0,85,0.00,,---,0.00,VWS V14.01,2013-12-08 14:06:00,
2013-12-08 09:11:00,21.5,17.4,30.63,East,101,0.0,1.0,84,0.00,,---,0.00,VWS V14.01,2013-12-08 14:11:00,
2013-12-08 09:16:00,21.6,17.5,30.63,East,101,0.0,1.0,84,0.00,,---,0.00,VWS V14.01,2013-12-08 14:16:00,
2013-12-08 09:21:00,21.7,17.6,30.63,ESE,108,0.0,1.0,84,0.00,,---,0.00,VWS V14.01,2013-12-08 14:21:00,
2013-12-08 09:26:00,21.8,17.7,30.64,East,82,0.0,1.0,84,0.00,,---,0.00,VWS V14.01,2013-12-08 14:26:00,
2013-12-08 09:30:00,21.9,17.8,30.63,ENE,70,0.0,1.0,84,0.00,,---,0.00,VWS V14.01,2013-12-08 14:30:00,
2013-12-08 09:31:00,22.0,17.9,30.63,ENE,75,0.0,1.0,84,0.00,,---,0.00,VWS V14.01,2013-12-08 14:31:00,
2013-12-08 09:36:00,22.1,18.0,30.63,NE,56,0.0,2.0,84,0.00,,---,0.00,VWS V14.01,2013-12-08 14:36:00,
2013-12-08 09:41:00,22.3,17.9,30.62,NNE,20,0.0,2.0,83,0.00,,---,0.00,VWS V14.01,2013-12-08 14:41:00,
2013-12-08 09:46:00,22.5,18.1,30.62,ENE,65,0.0,2.0,83,0.00,,---,0.00,VWS V14.01,2013-12-08 14:46:00,
2013-12-08 09:51:00,22.6,18.2,30.62,ENE,64,1.0,2.0,83,0.00,,---,0.00,VWS V14.01,2013-12-08 14:51:00,
2013-12-08 09:56:00,22.7,18.0,30.61,ENE,67,0.0,2.0,82,0.00,,---,0.00,VWS V14.01,2013-12-08 14:56:00,
2013-12-08 10:00:00,22.7,17.8,30.61,ENE,65,0.0,2.0,81,0.00,,---,0.00,VWS V14.01,2013-12-08 15:00:00,
2013-12-08 10:01:00,22.7,18.0,30.61,ENE,65,0.0,1.0,82,0.00,,---,0.00,VWS V14.01,2013-12-08 15:01:00,
2013-12-08 10:06:00,22.8,18.1,30.61,ESE,105,0.0,1.0,82,0.00,,---,0.00,VWS V14.01,2013-12-08 15:06:00,
2013-12-08 10:11:00,22.9,18.2,30.61,South,178,0.0,2.0,82,0.00,,---,0.00,VWS V14.01,2013-12-08 15:11:00,
2013-12-08 10:16:00,22.9,17.7,30.60,SSE,167,0.0,2.0,80,0.00,,---,0.00,VWS V14.01,2013-12-08 15:16:00,
2013-12-08 10:21:00,23.1,18.1,30.60,NE,51,1.0,2.0,81,0.00,,---,0.00,VWS V14.01,2013-12-08 15:21:00,
2013-12-08 10:26:00,23.2,17.4,30.60,East,98,0.0,2.0,78,0.00,,---,0.00,VWS V14.01,2013-12-08 15:26:00,
2013-12-08 10:30:00,23.2,17.1,30.60,ENE,67,0.0,2.0,77,0.00,,---,0.00,VWS V14.01,2013-12-08 15:30:00,
2013-12-08 10:31:00,23.2,17.4,30.61,East,81,1.0,2.0,78,0.00,,---,0.00,VWS V14.01,2013-12-08 15:31:00,
2013-12-08 10:36:00,23.2,17.1,30.60,East,98,0.0,3.0,77,0.00,,---,0.00,VWS V14.01,2013-12-08 15:36:00,
2013-12-08 10:41:00,23.4,17.3,30.60,NE,46,0.0,3.0,77,0.00,,---,0.00,VWS V14.01,2013-12-08 15:41:00,
2013-12-08 10:46:00,23.5,17.1,30.60,NE,49,1.0,4.0,76,0.00,,---,0.00,VWS V14.01,2013-12-08 15:46:00,
2013-12-08 10:51:00,23.4,17.0,30.60,NE,46,1.0,4.0,76,0.00,,---,0.00,VWS V14.01,2013-12-08 15:51:00,
2013-12-08 10:56:00,23.4,17.0,30.60,NE,50,0.0,4.0,76,0.00,,---,0.00,VWS V14.01,2013-12-08 15:56:00,
2013-12-08 11:00:00,23.5,16.8,30.59,ESE,113,0.0,4.0,75,0.00,,---,0.00,VWS V14.01,2013-12-08 16:00:00,
2013-12-08 11:01:00,23.5,16.8,30.59,SE,143,0.0,1.0,75,0.00,,---,0.00,VWS V14.01,2013-12-08 16:01:00,
2013-12-08 11:06:00,23.6,16.9,30.60,East,88,0.0,1.0,75,0.00,,---,0.00,VWS V14.01,2013-12-08 16:06:00,
2013-12-08 11:11:00,23.8,17.0,30.59,North,352,1.0,1.0,75,0.00,,---,0.00,VWS V14.01,2013-12-08 16:11:00,
2013-12-08 11:16:00,23.7,16.6,30.59,NNW,346,1.0,3.0,74,0.00,,---,0.00,VWS V14.01,2013-12-08 16:16:00,
2013-12-08 11:21:00,23.6,16.5,30.59,NE,46,0.0,3.0,74,0.00,,---,0.00,VWS V14.01,2013-12-08 16:21:00,
2013-12-08 11:26:00,23.7,17.0,30.59,NE,47,0.0,3.0,75,0.00,,---,0.00,VWS V14.01,2013-12-08 16:26:00,
2013-12-08 11:30:00,23.8,16.7,30.59,NE,47,0.0,3.0,74,0.00,,---,0.00,VWS V14.01,2013-12-08 16:30:00,
2013-12-08 11:31:00,23.9,16.8,30.59,ENE,61,0.0,0.0,74,0.00,,---,0.00,VWS V14.01,2013-12-08 16:31:00,
2013-12-08 11:36:00,24.2,17.4,30.59,ENE,61,0.0,0.0,75,0.00,,---,0.00,VWS V14.01,2013-12-08 16:36:00,
2013-12-08 11:41:00,24.2,17.1,30.59,ENE,57,0.0,1.0,74,0.00,,---,0.00,VWS V14.01,2013-12-08 16:41:00,
2013-12-08 11:46:00,24.2,17.1,30.59,East,91,0.0,1.0,74,0.00,,---,0.00,VWS V14.01,2013-12-08 16:46:00,
2013-12-08 11:51:00,24.3,17.2,30.59,East,91,0.0,1.0,74,0.00,,---,0.00,VWS V14.01,2013-12-08 16:51:00,
2013-12-08 11:56:00,24.6,17.5,30.59,North,1,0.0,1.0,74,0.00,,---,0.00,VWS V14.01,2013-12-08 16:56:00,
2013-12-08 12:00:00,24.7,17.9,30.59,North,355,0.0,1.0,75,0.00,,---,0.00,VWS V14.01,2013-12-08 17:00:00,
2013-12-08 12:01:00,24.8,18.0,30.59,North,355,0.0,0.0,75,0.00,,---,0.00,VWS V14.01,2013-12-08 17:01:00,
2013-12-08 12:06:00,24.8,17.4,30.58,NNE,18,0.0,1.0,73,0.00,,---,0.00,VWS V14.01,2013-12-08 17:06:00,
2013-12-08 12:11:00,25.0,17.9,30.58,SW,222,0.0,1.0,74,0.00,,---,0.00,VWS V14.01,2013-12-08 17:11:00,
2013-12-08 12:16:00,25.2,17.8,30.58,East,86,0.0,1.0,73,0.00,,---,0.00,VWS V14.01,2013-12-08 17:16:00,
2013-12-08 12:21:00,25.1,17.4,30.58,East,101,0.0,2.0,72,0.00,,---,0.00,VWS V14.01,2013-12-08 17:21:00,
2013-12-08 12:26:00,25.4,17.6,30.58,SSW,200,0.0,2.0,72,0.00,,---,0.00,VWS V14.01,2013-12-08 17:26:00,
2013-12-08 12:30:00,25.7,17.9,30.57,SSW,201,0.0,2.0,72,0.00,,---,0.00,VWS V14.01,2013-12-08 17:30:00,
2013-12-08 12:31:00,25.8,18.0,30.57,SSW,204,0.0,1.0,72,0.00,,---,0.00,VWS V14.01,2013-12-08 17:31:00,
2013-12-08 12:36:00,25.9,18.1,30.56,ESE,112,0.0,2.0,72,0.00,,---,0.00,VWS V14.01,2013-12-08 17:36:00,
2013-12-08 12:41:00,25.9,17.8,30.56,SSE,153,0.0,2.0,71,0.00,,---,0.00,VWS V14.01,2013-12-08 17:41:00,
2013-12-08 12:46:00,25.9,17.8,30.55,WSW,244,1.0,2.0,71,0.00,,---,0.00,VWS V14.01,2013-12-08 17:46:00,
2013-12-08 12:51:00,26.2,18.1,30.55,SW,224,0.0,2.0,71,0.00,,---,0.00,VWS V14.01,2013-12-08 17:51:00,
2013-12-08 12:56:00,26.5,18.4,30.56,SSW,202,2.0,3.0,71,0.00,,---,0.00,VWS V14.01,2013-12-08 17:56:00,
2013-12-08 13:00:00,26.5,18.0,30.55,SSE,148,0.0,3.0,70,0.00,,---,0.00,VWS V14.01,2013-12-08 18:00:00,
2013-12-08 13:01:00,26.6,18.5,30.55,ESE,117,0.0,0.0,71,0.00,,---,0.00,VWS V14.01,2013-12-08 18:01:00,
2013-12-08 13:06:00,26.8,18.0,30.55,South,169,0.0,2.0,69,0.00,,---,0.00,VWS V14.01,2013-12-08 18:06:00,
2013-12-08 13:11:00,26.7,17.6,30.53,East,94,2.0,5.0,68,0.00,,---,0.00,VWS V14.01,2013-12-08 18:11:00,
2013-12-08 13:16:00,26.3,17.5,30.52,SW,219,0.0,5.0,69,0.00,,---,0.00,VWS V14.01,2013-12-08 18:16:00,
2013-12-08 13:21:00,26.1,17.3,30.52,ESE,103,0.0,5.0,69,0.00,,---,0.00,VWS V14.01,2013-12-08 18:21:00,
2013-12-08 13:26:00,26.3,18.2,30.53,SSE,162,0.0,5.0,71,0.00,,---,0.00,VWS V14.01,2013-12-08 18:26:00,
2013-12-08 13:30:00,26.8,18.7,30.54,SE,127,0.0,5.0,71,0.00,,---,0.00,VWS V14.01,2013-12-08 18:30:00,
2013-12-08 13:31:00,26.9,18.4,30.54,East,90,1.0,1.0,70,0.00,,---,0.00,VWS V14.01,2013-12-08 18:31:00,
2013-12-08 13:36:00,26.7,17.6,30.54,ESE,109,0.0,2.0,68,0.00,,---,0.00,VWS V14.01,2013-12-08 18:36:00,
2013-12-08 13:41:00,26.7,17.9,30.53,SSE,163,0.0,2.0,69,0.00,,---,0.00,VWS V14.01,2013-12-08 18:41:00,
2013-12-08 13:46:00,26.7,18.2,30.54,SSW,196,0.0,2.0,70,0.00,,---,0.00,VWS V14.01,2013-12-08 18:46:00,
2013-12-08 13:51:00,27.1,18.3,30.53,ENE,76,2.0,3.0,69,0.00,,---,0.00,VWS V14.01,2013-12-08 18:51:00,
2013-12-08 13:56:00,26.9,17.8,30.53,East,91,1.0,4.0,68,0.00,,---,0.00,VWS V14.01,2013-12-08 18:56:00,
2013-12-08 14:00:00,26.8,18.0,30.53,East,89,0.0,4.0,69,0.00,,---,0.00,VWS V14.01,2013-12-08 19:00:00,
2013-12-08 14:01:00,26.9,18.4,30.53,ESE,110,0.0,2.0,70,0.00,,---,0.00,VWS V14.01,2013-12-08 19:01:00,
2013-12-08 14:06:00,27.0,18.9,30.53,East,101,0.0,2.0,71,0.00,,---,0.00,VWS V14.01,2013-12-08 19:06:00,
2013-12-08 14:11:00,26.9,18.4,30.53,East,94,0.0,2.0,70,0.00,,---,0.00,VWS V14.01,2013-12-08 19:11:00,
2013-12-08 14:16:00,27.0,18.9,30.52,ESE,121,0.0,2.0,71,0.00,,---,0.00,VWS V14.01,2013-12-08 19:16:00,
2013-12-08 14:21:00,27.0,19.2,30.52,East,99,1.0,2.0,72,0.00,,---,0.00,VWS V14.01,2013-12-08 19:21:00,
2013-12-08 14:26:00,26.8,18.7,30.52,SSW,195,1.0,2.0,71,0.00,,---,0.00,VWS V14.01,2013-12-08 19:26:00,
2013-12-08 14:30:00,26.9,18.8,30.53,SSW,192,1.0,2.0,71,0.00,,---,0.00,VWS V14.01,2013-12-08 19:30:00,
2013-12-08 14:31:00,26.9,18.8,30.52,SSW,203,1.0,2.0,71,0.00,,---,0.00,VWS V14.01,2013-12-08 19:31:00,
2013-12-08 14:36:00,26.9,18.4,30.53,South,183,0.0,2.0,70,0.00,,---,0.00,VWS V14.01,2013-12-08 19:36:00,
2013-12-08 14:41:00,26.8,18.3,30.52,South,181,0.0,2.0,70,0.00,,---,0.00,VWS V14.01,2013-12-08 19:41:00,
2013-12-08 14:46:00,26.9,18.8,30.52,South,190,0.0,2.0,71,0.00,,---,0.00,VWS V14.01,2013-12-08 19:46:00,
2013-12-08 14:51:00,26.7,18.2,30.52,SSE,165,0.0,2.0,70,0.00,,---,0.00,VWS V14.01,2013-12-08 19:51:00,
2013-12-08 14:56:00,26.6,18.8,30.52,ESE,102,0.0,2.0,72,0.00,,---,0.00,VWS V14.01,2013-12-08 19:56:00,
2013-12-08 15:00:00,26.3,18.2,30.52,ENE,75,1.0,3.0,71,0.00,,---,0.00,VWS V14.01,2013-12-08 20:00:00,
2013-12-08 15:01:00,26.3,18.2,30.53,ENE,70,0.0,1.0,71,0.00,,---,0.00,VWS V14.01,2013-12-08 20:01:00,
2013-12-08 15:06:00,26.1,18.6,30.52,East,96,0.0,1.0,73,0.00,,---,0.00,VWS V14.01,2013-12-08 20:06:00,
2013-12-08 15:11:00,26.0,18.5,30.52,SSW,198,0.0,1.0,73,0.00,,---,0.00,VWS V14.01,2013-12-08 20:11:00,
2013-12-08 15:16:00,26.0,18.9,30.52,ESE,121,1.0,1.0,74,0.00,,---,0.00,VWS V14.01,2013-12-08 20:16:00,
2013-12-08 15:21:00,25.9,19.1,30.52,East,86,0.0,1.0,75,0.00,,---,0.00,VWS V14.01,2013-12-08 20:21:00,
2013-12-08 15:26:00,25.8,19.0,30.51,ESE,107,0.0,2.0,75,0.00,,---,0.00,VWS V14.01,2013-12-08 20:26:00,
2013-12-08 15:30:00,25.7,19.2,30.51,ESE,108,1.0,2.0,76,0.00,,---,0.00,VWS V14.01,2013-12-08 20:30:00,
2013-12-08 15:31:00,25.7,19.2,30.51,East,101,0.0,2.0,76,0.00,,---,0.00,VWS V14.01,2013-12-08 20:31:00,
2013-12-08 15:36:00,25.7,19.8,30.52,East,101,0.0,2.0,78,0.00,,---,0.00,VWS V14.01,2013-12-08 20:36:00,
2013-12-08 15:41:00,25.5,19.9,30.51,East,94,0.0,3.0,79,0.00,,---,0.00,VWS V14.01,2013-12-08 20:41:00,
2013-12-08 15:46:00,25.2,20.2,30.51,East,93,1.0,4.0,81,0.00,,---,0.00,VWS V14.01,2013-12-08 20:46:00,
2013-12-08 15:51:00,25.0,20.6,30.51,East,96,0.0,4.0,83,0.00,,---,0.00,VWS V14.01,2013-12-08 20:51:00,
2013-12-08 15:56:00,24.8,20.7,30.51,ESE,120,0.0,4.0,84,0.00,,---,0.00,VWS V14.01,2013-12-08 20:56:00,
2013-12-08 16:00:00,24.7,20.8,30.51,ESE,105,0.0,4.0,85,0.00,,---,0.00,VWS V14.01,2013-12-08 21:00:00,
2013-12-08 16:01:00,24.7,20.8,30.52,ESE,102,0.0,0.0,85,0.00,,---,0.00,VWS V14.01,2013-12-08 21:01:00,
2013-12-08 16:06:00,24.7,21.1,30.52,SSW,204,0.0,1.0,86,0.00,,---,0.00,VWS V14.01,2013-12-08 21:06:00,
2013-12-08 16:11:00,24.7,21.4,30.52,SE,140,0.0,1.0,87,0.00,,---,0.00,VWS V14.01,2013-12-08 21:11:00,
2013-12-08 16:16:00,24.6,21.3,30.52,SE,140,0.0,1.0,87,0.00,,---,0.00,VWS V14.01,2013-12-08 21:16:00,
2013-12-08 16:21:00,24.6,21.6,30.51,ESE,111,0.0,1.0,88,0.00,,---,0.00,VWS V14.01,2013-12-08 21:21:00,
2013-12-08 16:26:00,24.5,21.5,30.51,ESE,117,0.0,1.0,88,0.00,,---,0.00,VWS V14.01,2013-12-08 21:26:00,
2013-12-08 16:30:00,24.4,21.4,30.51,ESE,115,0.0,1.0,88,0.00,,---,0.00,VWS V14.01,2013-12-08 21:30:00,
2013-12-08 16:31:00,24.4,21.6,30.52,ESE,122,0.0,0.0,89,0.00,,---,0.00,VWS V14.01,2013-12-08 21:31:00,
2013-12-08 16:36:00,24.4,21.6,30.51,SSW,204,0.0,1.0,89,0.00,,---,0.00,VWS V14.01,2013-12-08 21:36:00,
2013-12-08 16:41:00,24.4,21.6,30.50,SE,143,0.0,1.0,89,0.00,,---,0.00,VWS V14.01,2013-12-08 21:41:00,
2013-12-08 16:46:00,24.3,21.8,30.49,East,87,0.0,2.0,90,0.00,,---,0.00,VWS V14.01,2013-12-08 21:46:00,
2013-12-08 16:51:00,24.2,21.7,30.50,East,86,0.0,2.0,90,0.00,,---,0.00,VWS V14.01,2013-12-08 21:51:00,
2013-12-08 16:56:00,24.1,21.6,30.50,ESE,103,0.0,2.0,90,0.00,,---,0.00,VWS V14.01,2013-12-08 21:56:00,
2013-12-08 17:00:00,24.1,21.9,30.50,ESE,102,0.0,2.0,91,0.00,,---,0.00,VWS V14.01,2013-12-08 22:00:00,
2013-12-08 17:01:00,24.1,21.9,30.49,East,92,0.0,1.0,91,0.00,,---,0.00,VWS V14.01,2013-12-08 22:01:00,
2013-12-08 17:06:00,24.0,21.8,30.49,East,94,0.0,1.0,91,0.00,,---,0.00,VWS V14.01,2013-12-08 22:06:00,
2013-12-08 17:11:00,24.1,21.9,30.50,East,97,0.0,1.0,91,0.00,,---,0.00,VWS V14.01,2013-12-08 22:11:00,
2013-12-08 17:16:00,24.1,21.9,30.49,ESE,103,0.0,1.0,91,0.00,,---,0.00,VWS V14.01,2013-12-08 22:16:00,
2013-12-08 17:21:00,24.1,22.1,30.50,ESE,103,0.0,1.0,92,0.00,,---,0.00,VWS V14.01,2013-12-08 22:21:00,
2013-12-08 17:26:00,24.1,22.1,30.50,ESE,103,0.0,1.0,92,0.00,,---,0.00,VWS V14.01,2013-12-08 22:26:00,
2013-12-08 17:30:00,24.0,22.0,30.50,East,95,1.0,1.0,92,0.00,,---,0.00,VWS V14.01,2013-12-08 22:30:00,
2013-12-08 17:31:00,24.0,22.0,30.50,East,95,0.0,1.0,92,0.00,,---,0.00,VWS V14.01,2013-12-08 22:31:00,
2013-12-08 17:36:00,24.0,22.0,30.49,East,88,1.0,1.0,92,0.00,,---,0.00,VWS V14.01,2013-12-08 22:36:00,
2013-12-08 17:41:00,24.0,22.0,30.51,East,97,0.0,1.0,92,0.00,,---,0.00,VWS V14.01,2013-12-08 22:41:00,
2013-12-08 17:46:00,24.0,22.0,30.50,South,180,0.0,1.0,92,0.00,,---,0.00,VWS V14.01,2013-12-08 22:46:00,
2013-12-08 17:51:00,24.0,22.3,30.49,ESE,105,0.0,1.0,93,0.00,,---,0.00,VWS V14.01,2013-12-08 22:51:00,
2013-12-08 17:56:00,24.1,22.4,30.50,ESE,105,0.0,1.0,93,0.00,,---,0.00,VWS V14.01,2013-12-08 22:56:00,
2013-12-08 18:00:00,24.1,22.4,30.50,ESE,105,0.0,1.0,93,0.00,,---,0.00,VWS V14.01,2013-12-08 23:00:00,
2013-12-08 18:01:00,24.1,22.4,30.50,ESE,105,0.0,0.0,93,0.00,,---,0.00,VWS V14.01,2013-12-08 23:01:00,
2013-12-08 18:06:00,24.1,22.4,30.50,ESE,105,0.0,0.0,93,0.00,,---,0.00,VWS V14.01,2013-12-08 23:06:00,
2013-12-08 18:11:00,24.1,22.4,30.49,ENE,65,0.0,2.0,93,0.00,,---,0.00,VWS V14.01,2013-12-08 23:11:00,
2013-12-08 18:16:00,24.1,22.4,30.48,East,83,1.0,2.0,93,0.00,,---,0.00,VWS V14.01,2013-12-08 23:16:00,
2013-12-08 18:21:00,24.1,22.4,30.49,East,86,0.0,2.0,93,0.00,,---,0.00,VWS V14.01,2013-12-08 23:21:00,
2013-12-08 18:26:00,24.2,22.5,30.48,East,81,1.0,2.0,93,0.00,,---,0.00,VWS V14.01,2013-12-08 23:26:00,
2013-12-08 18:30:00,24.2,22.5,30.48,East,89,0.0,2.0,93,0.00,,---,0.00,VWS V14.01,2013-12-08 23:30:00,
2013-12-08 18:31:00,24.2,22.5,30.49,ESE,103,0.0,1.0,93,0.00,,---,0.00,VWS V14.01,2013-12-08 23:31:00,
2013-12-08 18:36:00,24.2,22.5,30.49,East,79,0.0,2.0,93,0.00,,---,0.00,VWS V14.01,2013-12-08 23:36:00,
2013-12-08 18:41:00,24.3,22.6,30.49,East,88,1.0,2.0,93,0.00,,---,0.00,VWS V14.01,2013-12-08 23:41:00,
2013-12-08 18:46:00,24.3,22.6,30.49,ENE,75,1.0,2.0,93,0.00,,---,0.00,VWS V14.01,2013-12-08 23:46:00,
2013-12-08 18:51:00,24.3,22.6,30.50,ENE,76,0.0,2.0,93,0.00,,---,0.00,VWS V14.01,2013-12-08 23:51:00,
2013-12-08 18:56:00,24.4,22.7,30.49,ENE,61,0.0,2.0,93,0.00,,---,0.00,VWS V14.01,2013-12-08 23:56:00,
2013-12-08 19:00:00,24.4,22.7,30.49,ENE,63,0.0,2.0,93,0.00,,---,0.00,VWS V14.01,2013-12-09 00:00:00,
2013-12-08 19:01:00,24.3,22.6,30.48,ENE,63,0.0,1.0,93,0.00,,---,0.00,VWS V14.01,2013-12-09 00:01:00,
2013-12-08 19:06:00,24.3,22.6,30.47,East,79,1.0,2.0,93,0.00,,---,0.00,VWS V14.01,2013-12-09 00:06:00,
2013-12-08 19:11:00,24.3,22.6,30.46,East,86,1.0,2.0,93,0.00,,---,0.00,VWS V14.01,2013-12-09 00:11:00,
2013-12-08 19:16:00,24.3,22.8,30.45,East,92,1.0,2.0,94,0.00,,---,0.00,VWS V14.01,2013-12-09 00:16:00,
2013-12-08 19:21:00,24.3,22.8,30.46,East,95,0.0,2.0,94,0.00,,---,0.00,VWS V14.01,2013-12-09 00:21:00,
2013-12-08 19:26:00,24.3,22.6,30.47,East,91,0.0,2.0,93,0.00,,---,0.00,VWS V14.01,2013-12-09 00:26:00,
2013-12-08 19:30:00,24.3,22.6,30.47,East,85,1.0,2.0,93,0.00,,---,0.00,VWS V14.01,2013-12-09 00:30:00,
2013-12-08 19:31:00,24.4,22.7,30.47,East,91,1.0,1.0,93,0.00,,---,0.00,VWS V14.01,2013-12-09 00:31:00,
2013-12-08 19:36:00,24.4,22.9,30.45,East,84,0.0,1.0,94,0.00,,---,0.00,VWS V14.01,2013-12-09 00:36:00,
2013-12-08 19:41:00,24.5,23.0,30.45,East,85,1.0,2.0,94,0.00,,---,0.00,VWS V14.01,2013-12-09 00:41:00,
2013-12-08 19:46:00,24.5,23.0,30.45,East,87,0.0,3.0,94,0.00,,---,0.00,VWS V14.01,2013-12-09 00:46:00,
2013-12-08 19:51:00,24.5,23.0,30.45,ENE,78,0.0,3.0,94,0.00,,---,0.00,VWS V14.01,2013-12-09 00:51:00,
2013-12-08 19:56:00,24.5,23.0,30.44,East,86,0.0,3.0,94,0.00,,---,0.00,VWS V14.01,2013-12-09 00:56:00,
2013-12-08 20:00:00,24.6,23.1,30.44,East,79,0.0,3.0,94,0.00,,---,0.00,VWS V14.01,2013-12-09 01:00:00,
2013-12-08 20:01:00,24.5,23.0,30.44,East,79,0.0,0.0,94,0.00,,---,0.00,VWS V14.01,2013-12-09 01:01:00,
2013-12-08 20:06:00,24.5,23.0,30.43,East,84,0.0,2.0,94,0.00,,---,0.00,VWS V14.01,2013-12-09 01:06:00,
2013-12-08 20:11:00,24.5,23.0,30.43,East,95,0.0,2.0,94,0.00,,---,0.00,VWS V14.01,2013-12-09 01:11:00,
2013-12-08 20:16:00,24.5,23.0,30.44,East,82,0.0,2.0,94,0.00,,---,0.00,VWS V14.01,2013-12-09 01:16:00,
2013-12-08 20:21:00,24.5,23.0,30.43,East,86,0.0,2.0,94,0.00,,---,0.00,VWS V14.01,2013-12-09 01:21:00,
2013-12-08 20:26:00,24.5,23.0,30.43,East,88,0.0,2.0,94,0.00,,---,0.00,VWS V14.01,2013-12-09 01:26:00,
2013-12-08 20:30:00,24.5,23.0,30.42,East,93,0.0,2.0,94,0.00,,---,0.00,VWS V14.01,2013-12-09 01:30:00,
2013-12-08 20:31:00,24.5,23.0,30.42,East,84,0.0,1.0,94,0.00,,---,0.00,VWS V14.01,2013-12-09 01:31:00,
2013-12-08 20:36:00,24.5,23.0,30.42,East,89,0.0,1.0,94,0.00,,---,0.00,VWS V14.01,2013-12-09 01:36:00,
2013-12-08 20:41:00,24.5,23.0,30.42,ESE,115,0.0,1.0,94,0.00,,---,0.00,VWS V14.01,2013-12-09 01:41:00,
2013-12-08 20:46:00,24.5,23.0,30.41,East,86,0.0,2.0,94,0.00,,---,0.00,VWS V14.01,2013-12-09 01:46:00,
2013-12-08 20:50:00,24.5,23.0,30.41,East,98,0.0,2.0,94,0.00,,---,0.00,VWS V14.01,2013-12-09 01:50:00,
2013-12-08 20:55:00,24.6,23.1,30.42,ENE,59,1.0,2.0,94,0.00,,---,0.00,VWS V14.01,2013-12-09 01:55:00,
2013-12-08 21:00:00,24.6,23.1,30.42,East,89,0.0,2.0,94,0.00,,---,0.00,VWS V14.01,2013-12-09 02:00:00,
2013-12-08 21:05:00,24.6,23.1,30.41,East,89,0.0,2.0,94,0.00,,---,0.00,VWS V14.01,2013-12-09 02:05:00,
2013-12-08 21:10:00,24.7,23.2,30.41,East,89,0.0,2.0,94,0.00,,---,0.00,VWS V14.01,2013-12-09 02:10:00,
2013-12-08 21:15:00,24.7,23.5,30.41,East,89,0.0,2.0,95,0.00,,---,0.00,VWS V14.01,2013-12-09 02:15:00,
2013-12-08 21:20:00,24.7,23.5,30.41,East,91,0.0,2.0,95,0.00,,---,0.00,VWS V14.01,2013-12-09 02:20:00,
2013-12-08 21:25:00,24.8,23.6,30.40,East,97,0.0,2.0,95,0.00,,---,0.00,VWS V14.01,2013-12-09 02:25:00,
2013-12-08 21:30:00,24.8,23.6,30.40,East,86,0.0,1.0,95,0.00,,---,0.00,VWS V14.01,2013-12-09 02:30:00,
2013-12-08 21:35:00,24.8,23.6,30.41,East,86,0.0,3.0,95,0.00,,---,0.00,VWS V14.01,2013-12-09 02:35:00,
2013-12-08 21:40:00,24.9,23.7,30.41,ENE,78,1.0,3.0,95,0.00,,---,0.00,VWS V14.01,2013-12-09 02:40:00,
2013-12-08 21:45:00,24.8,23.3,30.42,SE,136,0.0,3.0,94,0.00,,---,0.00,VWS V14.01,2013-12-09 02:45:00,
2013-12-08 21:50:00,24.9,23.4,30.42,East,95,0.0,3.0,94,0.00,,---,0.00,VWS V14.01,2013-12-09 02:50:00,
2013-12-08 21:55:00,25.0,23.8,30.42,East,86,0.0,3.0,95,0.00,,---,0.00,VWS V14.01,2013-12-09 02:55:00,
2013-12-08 22:00:00,25.0,23.8,30.42,SE,131,0.0,0.0,95,0.00,,---,0.00,VWS V14.01,2013-12-09 03:00:00,
2013-12-08 22:05:00,25.0,23.8,30.42,East,89,1.0,1.0,95,0.00,,---,0.00,VWS V14.01,2013-12-09 03:05:00,
2013-12-08 22:10:00,25.0,23.8,30.42,ESE,106,0.0,3.0,95,0.00,,---,0.00,VWS V14.01,2013-12-09 03:10:00,
2013-12-08 22:15:00,25.1,23.9,30.41,East,94,0.0,3.0,95,0.00,,---,0.00,VWS V14.01,2013-12-09 03:15:00,
2013-12-08 22:20:00,25.1,23.9,30.41,ESE,104,0.0,3.0,95,0.00,,---,0.00,VWS V14.01,2013-12-09 03:20:00,
2013-12-08 22:25:00,25.1,23.9,30.41,East,89,1.0,3.0,95,0.00,,---,0.00,VWS V14.01,2013-12-09 03:25:00,
2013-12-08 22:30:00,25.1,23.9,30.41,East,95,1.0,1.0,95,0.00,,---,0.00,VWS V14.01,2013-12-09 03:30:00,
2013-12-08 22:35:00,25.1,23.9,30.40,East,97,0.0,2.0,95,0.00,,---,0.00,VWS V14.01,2013-12-09 03:35:00,
2013-12-08 22:40:00,25.1,23.9,30.41,NE,49,0.0,2.0,95,0.00,,---,0.00,VWS V14.01,2013-12-09 03:40:00,
2013-12-08 22:45:00,25.1,23.9,30.41,East,98,0.0,2.0,95,0.00,,---,0.00,VWS V14.01,2013-12-09 03:45:00,
2013-12-08 22:50:00,25.2,24.0,30.41,East,86,0.0,2.0,95,0.00,,---,0.00,VWS V14.01,2013-12-09 03:50:00,
2013-12-08 22:55:00,25.3,24.1,30.40,East,89,0.0,3.0,95,0.00,,---,0.00,VWS V14.01,2013-12-09 03:55:00,
2013-12-08 23:00:00,25.3,24.1,30.40,ESE,110,1.0,3.0,95,0.00,,---,0.00,VWS V14.01,2013-12-09 04:00:00,
2013-12-08 23:05:00,25.3,24.1,30.40,ESE,110,1.0,3.0,95,0.00,,---,0.00,VWS V14.01,2013-12-09 04:05:00,
2013-12-08 23:10:00,25.3,24.1,30.40,SW,219,0.0,3.0,95,0.00,,---,0.00,VWS V14.01,2013-12-09 04:10:00,
2013-12-08 23:15:00,25.3,24.1,30.40,SE,124,0.0,3.0,95,0.00,,---,0.00,VWS V14.01,2013-12-09 04:15:00,
2013-12-08 23:20:00,25.3,24.1,30.39,East,83,0.0,3.0,95,0.00,,---,0.00,VWS V14.01,2013-12-09 04:20:00,
2013-12-08 23:25:00,25.4,24.2,30.38,East,87,0.0,3.0,95,0.00,,---,0.00,VWS V14.01,2013-12-09 04:25:00,
2013-12-08 23:30:00,25.4,24.2,30.38,East,94,2.0,2.0,95,0.00,,---,0.00,VWS V14.01,2013-12-09 04:30:00,
2013-12-08 23:35:00,25.2,24.0,30.38,East,91,2.0,4.0,95,0.00,,---,0.00,VWS V14.01,2013-12-09 04:35:00,
2013-12-08 23:40:00,25.2,24.0,30.37,East,94,0.0,4.0,95,0.00,,---,0.00,VWS V14.01,2013-12-09 04:40:00,
2013-12-08 23:45:00,25.2,23.7,30.37,ESE,104,1.0,5.0,94,0.00,,---,0.00,VWS V14.01,2013-12-09 04:45:00,
2013-12-08 23:50:00,25.2,24.0,30.37,ESE,122,0.0,5.0,95,0.00,,---,0.00,VWS V14.01,2013-12-09 04:50:00,
2013-12-08 23:55:00,25.2,24.0,30.36,ENE,63,1.0,5.0,95,0.00,,---,0.00,VWS V14.01,2013-12-09 04:55:00,